Regional Weather Roundup
Issued by NWS

Home | Current Version | Previous Version | Text Only | Print | Product List | Glossary Off
Versions: 1 2 3 4 5 6 7 8 9 10 11 12 13 14 15 16 17 18 19 20 21 22 23 24 25 26 27 28 29 30 31 32 33 34 35 36 37 38 39 40 41 42 43 44 45 46 47 48 49 50

000
ASUS45 KCYS 282210
RWRWY

WYOMING REGIONAL WEATHER ROUNDUP
NATIONAL WEATHER SERVICE CHEYENNE WY
400 PM MDT FRI AUG 28 2015

NOTE:  "FAIR" INDICATES FEW OR NO CLOUDS BELOW 12,000 FEET
WITH NO SIGNIFICANT WEATHER AND/OR OBSTRUCTIONS TO VISIBILITY.

WYZ001-282300-
YELLOWSTONE NATIONAL PARK

CITY           SKY/WX    TMP DP  RH WIND       PRES   REMARKS
LK YELLOWSTONE   N/A     71  30  21 VRB5      30.37F
W YELLOWSTONE  NOT AVBL

$$
WYZ002>013-054>058-071-098>099-282300-
NORTHERN WYOMING

CITY           SKY/WX    TMP DP  RH WIND       PRES   REMARKS
JACKSON        FAIR      81  30  16 SW12G21   30.26F
CODY           FAIR      84  39  20 E8        30.13S
GREYBULL       FAIR      88  42  20 S7        30.06F
WORLAND        FAIR      87  47  24 VRB5      30.08F
SHERIDAN       FAIR      89  38  16 CALM      30.07F HAZE
BUFFALO        FAIR      85  39  19 SE9       30.15S
GILLETTE       FAIR      87  41  19 W13       30.10F
HULETT         FAIR      86  43  22 CALM      30.10F
NEWCASTLE      FAIR      86  34  15 NW7       30.10F

$$
WYZ014>020-022>026-101>103-282300-
CENTRAL WYOMING

CITY           SKY/WX    TMP DP  RH WIND       PRES   REMARKS
BIG PINEY      FAIR      81  27  14 W7        30.31F
PINEDALE       FAIR      77  30  18 W7        30.32F
DUBOIS         FAIR      77  28  16 N8G24     30.29F
LANDER         FAIR      85  41  21 E7        30.17F
RIVERTON       FAIR      82  41  23 E9        30.19F
CASPER         FAIR      83  37  19 S8        30.18F
DOUGLAS        FAIR      86  39  19 VRB5      30.17F

$$
WYZ021-027>030-104>119-282300-
SOUTHERN WYOMING

CITY           SKY/WX    TMP DP  RH WIND       PRES   REMARKS
EVANSTON       FAIR      83  31  15 S9        30.32F
KEMMERER       FAIR     N/A N/A N/A W9        30.33F
FORT BRIDGER   PTCLDY    82  28  14 NE6       30.34F
ROCK SPRINGS   FAIR      80  31  16 CALM      30.29F
DIXON          FAIR      82  32  17 SW6       30.32F
RAWLINS        FAIR      79  31  17 NW6       30.31F
SARATOGA       FAIR      75  37  25 N6        30.33F
LARAMIE        FAIR      74  39  28 VRB6      30.34F
CHEYENNE       FAIR      80  36  20 VRB6      30.25F
TORRINGTON     FAIR      89  37  16 N9        30.10S
PINE BLUFFS    FAIR      82  34  17 N9        30.19F

$$


USA.gov is the U.S. government's official web portal to all federal, state and local government web resources and services.